FENGYUN 4A (41882 NORAD) Tracking and Keplerian Element Data

This shows tracking and keplerian element data for the satellite.

Feedback or suggestion? Click here.




ElementValue
Catalog41882
NameFENGYUN 4A
Epoch Orbit746
Epoch Day345.8172275
Epoch Year2018
RAAN294.9134
Inclination0.0717
Eccentricity0.0003909
Argument of Perigee153.4368
Mean Anonmoly30.7911
Mean Motion1.00279956
Decay Rate-3.24E-06
L11 41882U 16077A 18345.81722750 -.00000324 00000-0 00000+0 0 9996
L22 41882 0.0717 294.9134 0003909 153.4368 30.7911 1.00279956 7460

Live tracking and technical data element details for FENGYUN 4A (NORAD 41882). FENGYUN 4A can be tracked NOW for your location showing map with azimuth and elevation plus other details from your city location.

Track the satellite on the map from your city or location and see movement details for azimuth, elevation, latitude, longitude, range, height, and movement on the map or in text.







IsCatalogInMostPopularTable: catalog: 41882, numindb: 123
Update: records affected: 1



GetName: 41882 FENGYUN 4A

Hit Count: updated at: Thu, 13 Dec 2018 05:06:59 GMT